KIRKENES_(CIV/MIL) current weather conditions

sailwx.info

Wind from 180 at 12 knots

Air temperature -0.0° C
Visibility: greater than 5.4 NM
Dewpoint -1.0° C
Present weather: Light snow.

Last reported at 2019-Dec-13 11:50 UTC.
Time now 2019-Dec-13 13:12 UTC

Location: N 69°44' E 029°54'.
View on Google Maps.

See reports from other nearby stations

  
Tides and Currents Weather Stations Pressure Air Temp Water Temp Dewpoint Dewpoint Depression Visibility Wind Speed Wind Dir Waves Ship Positions
date/time (UTC)wind fromknots sea level pressurealtimeterstation pressurevisibilityair tempwater tempwave heightnotes
2019-Dec-13 11:50 180 12 5.4-0.0 Light snow.
2019-Dec-13 11:20 170 11 5.4-0.0 Light snow.
2019-Dec-13 10:50 170 12 3.2-0.0 Light snow.
2019-Dec-13 10:20 170 12 4.3-0.0 Light snow.
2019-Dec-13 09:50 180 12 3.8-0.0 Light snow.
2019-Dec-13 09:20 170 9 3.2-0.0 Light snow.
2019-Dec-13 08:50 160 8 2.7-0.0 Light snow.
2019-Dec-13 08:20 170 8 4.3-0.0 Light snow.
2019-Dec-13 07:50 180 9 5.4-0.0
2019-Dec-13 07:20 160 6 5.4-0.0
2019-Dec-13 06:50 170 7 4.3-0.0 Light snow.
2019-Dec-13 06:20 160 6 5.4-0.0 Light snow.
2019-Dec-13 05:50 150 7 5.4-0.0
2019-Dec-13 05:20 150 6 5.4-0.0
2019-Dec-13 04:50 150 7 5.4-0.0
2019-Dec-13 04:20 150 8 5.4-0.0
2019-Dec-13 03:50 150 8 5.4-0.0
2019-Dec-13 03:20 160 8 5.4-1.0
2019-Dec-13 02:50 170 9 5.4-1.0
2019-Dec-13 02:20 170 9 5.4-1.0
2019-Dec-13 01:50 160 9 5.4-0.0
2019-Dec-13 01:20 160 8 5.4-0.0
2019-Dec-13 00:50 150 6 5.4-0.0
2019-Dec-13 00:20 160 8 5.4-0.0
2019-Dec-12 23:50 160 9 5.4-0.0 Light snow.
2019-Dec-12 23:20 160 9 5.4-0.0
2019-Dec-12 22:50 160 9 3.2-0.0 Light snow.
2019-Dec-12 22:20 160 7 5.4-0.0 Light snow.
2019-Dec-12 21:50 140 6 5.4-0.0 Light snow.
2019-Dec-12 21:20 160 6 2.7-0.0 Light snow.
2019-Dec-12 20:50 160 6 5.4-1.0
2019-Dec-12 20:20 150 6 4.9-1.0 Light snow.
2019-Dec-12 19:50 150 6 4.3-1.0 Light snow.
2019-Dec-12 19:20 170 6 5.4-1.0 Light snow.
2019-Dec-12 18:50 160 7 5.4-1.0 Showers in the vicinity.
2019-Dec-12 18:20 170 7 5.4-1.0 Light snow.
2019-Dec-12 17:50 170 6 2.7-1.0 Light snow showers.
2019-Dec-12 17:20 180 6 5.4-1.0
2019-Dec-12 16:50 170 6 5.4-1.0
2019-Dec-12 16:20 180 6 5.4-1.0
2019-Dec-12 15:50 150 5 5.4-1.0
2019-Dec-12 15:20 170 6 5.4-2.0
2019-Dec-12 14:50 170 6 5.4-1.0
2019-Dec-12 14:20 180 7 5.4-2.0 Light snow.
2019-Dec-12 13:50 170 6 5.4-2.0 Light snow showers.
2019-Dec-12 13:20 190 8 5.4-1.0
2019-Dec-12 12:50 190 9 3.8-1.0 Light snow.
2019-Dec-12 12:20 190 9 5.4-1.0
2019-Dec-12 11:50 200 14 5.4-1.0
2019-Dec-12 11:20 200 14 5.4-1.0
2019-Dec-12 10:50 200 12 5.4-1.0
2019-Dec-12 10:20 200 13 5.4-1.0
2019-Dec-12 09:50 180 6 5.4-1.0
2019-Dec-12 09:20 180 6 5.4-1.0
2019-Dec-12 08:50 190 8 5.4-1.0 Light snow.
2019-Dec-12 08:20 5.4-1.0 Light snow.
2019-Dec-12 07:50 200 8 5.4-2.0 Light snow.
2019-Dec-12 07:20 180 5 5.4-2.0 Light snow.
2019-Dec-12 06:50 200 9 5.4-1.0
2019-Dec-12 06:20 180 6 5.4-1.0
2019-Dec-12 05:50 190 7 5.4-2.0
2019-Dec-12 05:20 150 4 5.4-2.0
2019-Dec-12 04:50 120 6 5.4-3.0
2019-Dec-12 04:20 140 5 5.4-3.0
2019-Dec-12 03:50 120 6 5.4-3.0
2019-Dec-12 03:20 110 6 5.4-3.0
2019-Dec-12 02:50 120 6 5.4-3.0
2019-Dec-12 02:20 120 6 5.4-4.0
2019-Dec-12 01:50 180 7 5.4-5.0
2019-Dec-12 01:20 170 8 5.4-5.0
2019-Dec-12 00:50 170 8 5.4-4.0
2019-Dec-12 00:20 190 9 5.4-4.0 Light snow.
2019-Dec-11 23:50 190 11 2.4-5.0 Light snow.
2019-Dec-11 23:20 180 12 1.4-5.0 Light snow.
2019-Dec-11 22:50 170 7 2.1-5.0 Light snow.
2019-Dec-11 22:20 170 9 3.8-5.0 Light snow.
2019-Dec-11 21:50 170 8 1.6-6.0 Light snow.
2019-Dec-11 21:20 160 12 1.0-6.0 Light snow.
2019-Dec-11 20:50 160 12 0.7-6.0 Light snow.
2019-Dec-11 20:20 160 13 0.6-6.0 Light snow.
2019-Dec-11 19:50 160 13 0.5-6.0 Snow. Light low drifting snow.
2019-Dec-11 19:20 160 15 0.5-6.0 Snow. Light low drifting snow.
2019-Dec-11 18:50 160 17 0.5-6.0 Light snow.
2019-Dec-11 18:20 160 15 0.5-6.0 Light snow.
2019-Dec-11 17:50 160 15 0.6-6.0 Light snow.
2019-Dec-11 17:20 160 17 0.8-6.0 Light snow. Light low drifting snow.
2019-Dec-11 16:50 160 18 0.8-6.0 Light snow.
2019-Dec-11 16:20 150 19 0.5-6.0 Light snow.
2019-Dec-11 15:50 160 15 0.6-6.0 Light snow.
2019-Dec-11 15:20 160 17 0.6-6.0 Light snow.
2019-Dec-11 14:50 160 17 0.5-6.0 Snow.
2019-Dec-11 14:20 160 14 0.5-6.0 Snow.
2019-Dec-11 13:50 170 12 1.3-8.0 Light snow.
2019-Dec-11 13:20 170 13 1.6-9.0 Light snow.